Lid_Strength_Index
13 13 12 10 10 10 10 9 9 8 8 8 9 9 10 11 11 11 10 11 10 10 11 12 12 12 11 11 11 13 14 14 13 10 11 12 12 13 14 15 15 14 14
14 13 12 11 10 10 10 10 9 9 8 7 9 10 12 13 13 13 13 13 13 13 13 14 14 14 14 15 14 14 14 15 15 12 12 13 12 14 15 15 15 16 15
13 13 12 11 11 11 10 10 9 8 8 10 11 13 13 13 14 15 15 15 14 14 14 15 15 15 15 16 16 15 15 16 16 16 13 16 16 15 13 16 16 16 16
12 13 12 11 11 10 10 9 9 9 11 11 12 13 14 15 15 16 16 15 15 15 15 15 15 15 15 16 16 16 16 16 17 16 15 17 16 18 19 17 17 16 16
13 13 12 11 10 11 11 10 10 11 11 11 12 13 16 16 16 16 16 16 16 16 15 16 16 16 16 16 17 17 17 17 17 17 17 18 18 18 18 20 19 17 16
13 13 12 11 11 12 12 12 12 11 11 12 13 14 16 16 16 17 17 17 17 17 17 16 17 17 17 17 17 17 17 17 17 17 17 17 19 19 19 19 19 19 17
14 14 14 13 12 13 13 12 12 12 12 13 14 15 15 15 16 17 17 17 17 18 18 17 17 17 17 17 18 18 18 18 18 18 18 17 17 17 17 18 19 19 18
15 14 13 13 12 13 14 13 13 13 14 15 15 15 15 16 16 17 17 17 18 18 18 18 18 18 18 18 18 18 18 18 18 18 17 17 17 16 16 17 18 19 19
15 15 14 14 14 14 14 14 15 14 15 15 15 15 16 16 17 17 17 18 18 18 18 18 18 18 18 18 18 18 18 18 18 18 18 17 17 17 17 17 16 17 20
16 16 15 15 14 14 15 16 15 15 15 15 15 15 16 16 17 17 18 18 18 18 19 19 19 18 18 18 18 19 18 18 18 18 18 18 17 17 17 17 16 16 17
15 16 16 16 15 15 16 16 16 16 16 16 16 16 17 17 17 18 18 18 18 19 19 19 19 18 18 18 19 19 18 18 18 18 18 18 17 18 18 17 16 16 16
15 15 16 16 17 16 16 16 17 16 16 16 17 17 17 17 18 18 18 19 18 19 19 19 19 19 19 19 19 19 18 19 18 18 18 18 16 17 17 16 16 16 16
15 16 16 17 17 16 16 17 16 16 16 17 17 18 18 18 18 18 19 19 19 19 19 19 19 19 19 19 18 18 18 18 18 17 17 17 17 16 16 16 16 16 14
15 16 16 16 16 16 16 16 17 16 17 17 17 18 18 18 18 18 19 18 18 18 19 19 19 18 18 18 18 18 18 18 17 17 16 16 16 15 15 15 15 14 14
15 15 15 16 16 16 16 16 16 17 17 17 18 18 18 18 19 18 18 18 18 18 18 18 18 18 18 18 18 18 18 18 17 17 15 15 14 12 12 14 14 14 14
14 14 14 15 16 16 16 16 16 17 17 17 18 18 18 18 18 18 18 18 18 19 18 18 19 19 18 15 14 16 17 17 17 16 15 14 14 12 10 10 9 10 14
13 14 14 14 15 15 15 16 16 17 17 18 18 18 18 18 17 17 17 18 18 18 18 18 19 19 19 14 13 13 17 16 16 15 14 14 13 13 13 11 9 9 8
12 13 13 13 14 14 15 15 17 17 17 18 17 17 17 17 17 17 17 18 18 18 18 19 19 19 18 14 12 12 15 16 15 14 14 14 13 13 13 13 12 12 11
11 11 12 13 14 15 15 16 18 18 17 18 17 17 17 17 17 17 17 17 18 18 19 19 19 19 19 13 12 12 15 14 14 13 13 13 13 11 9 11 13 11 10
12 13 14 15 15 15 16 17 18 18 18 17 16 16 16 16 17 16 17 17 17 17 18 18 19 19 19 13 11 11 14 17 14 14 13 11 12 10 9 10 12 12 11
14 15 14 14 15 16 16 17 17 17 16 16 16 16 16 16 16 16 17 19 18 19 19 19 20 20 19 18 11 9 13 13 15 15 14 13 10 8 7 7 9 10 9
15 15 15 15 15 16 15 16 16 15 15 16 17 16 16 16 17 17 19 19 18 19 20 21 23 20 18 15 12 9 8 10 15 15 13 13 9 8 7 7 6 5 7
16 16 15 16 16 15 14 15 15 17 17 17 17 17 17 18 18 18 20 20 20 19 20 19 18 18 18 17 11 10 9 8 10 11 12 9 8 7 7 6 6 9 16
17 17 16 16 18 17 17 16 17 17 17 17 18 19 19 20 20 19 19 19 19 19 18 19 17 20 19 17 16 15 14 11 9 9 10 9 8 8 8 11 9 12 14
18 17 17 17 18 19 19 19 19 18 18 19 20 20 20 20 21 22 20 19 22 17 19 18 19 21 20 18 14 15 17 16 14 13 21 20 15 13 13 15 14 14 14
19 19 20 20 21 20 20 20 19 18 19 21 21 21 21 22 22 22 24 16 15 13 12 12 17 21 14 12 11 10 9 9 9 12 14 15 15 14 13 13 13 15 15